Location: Clanezzo
(45.7500°N, 9.6000°E)
Time: 21:36:40
(UTC+00:00)

STARS - Pass Details

Date: 02 July 2022
Orbit: 620 x 637 km, 98.2° (Epoch: 16 August)

Event Time Altitude Azimuth Distance (km) Brightness Sun altitude
Rises 21:19:35 0° 24° (NNE) 2,931 ? -15.5°
Reaches altitude 10° 21:22:05 10° 36° (NE) 2,015 ? -15.7°
Maximum altitude 21:25:50 27° 95° (E) 1,202 ? -16.1°
Enters shadow 21:26:53 25° 120° (ESE) 1,282 ? -16.1°
